#timestamp,LO_Frequency,Hit,StdDev 
1667282415.8,286047003.3,N
1667282435.7,286047002.9,N
1667282455.5,286047005.8,N
1667282475.4,286047003.5,N
1667282495.2,286047003.6,N
1667282515.0,286047011.9,Y
1667282515.9,286047003.7,P
1667282535.8,286046999.2,P
1667282555.6,286046999.2,N
1667282575.4,286046999.3,N
1667282595.3,286046995.4,N
1667282615.1,286046998.0,N
1667282635.9,286046996.1,N
1667282655.7,286046996.2,N
1667282675.5,286046994.8,N
1667282695.4,286046992.6,N
1667282715.2,286046992.7,N
1667282735.0,286046992.4,N
1667282735.9,286046992.4,N
1667282755.8,286046991.8,N
1667282775.6,286046991.9,N
1667282795.5,286046994.8,N
1667282815.3,286046992.1,N
1667282835.1,286046992.0,N
1667282855.9,286046992.9,N
1667282875.7,286046990.5,N
1667282895.6,286046990.3,N
1667282915.4,286046990.9,N
1667282935.2,286046990.9,N
1667282955.1,286046990.9,N
1667282956.0,286046990.9,N
1667282975.8,286046991.2,N
1667282995.6,286046989.0,N
1667283015.5,286046991.2,N
1667283035.3,286046988.7,N
1667283055.2,286046988.5,N
1667283075.9,286046991.0,N
1667283095.7,286046990.7,Y
1667283115.6,286046996.7,P
1667283135.4,286046997.8,N
1667283155.2,286046997.4,N
1667283175.1,286046997.7,N
1667283176.0,286046997.7,N
1667283195.8,286046996.5,N
1667283215.7,286046997.4,N
1667283235.5,286046997.2,N
1667283255.3,286046995.4,Y
1667283275.2,286046998.9,P
1667283295.0,286046998.7,N
1667283295.9,286046998.7,N
1667283315.8,286046998.6,N
1667283335.6,286046998.4,N
1667283355.4,286047000.3,N
1667283375.3,286046998.8,N
1667283395.1,286046999.1,N
1667283415.9,286046999.4,N
1667283435.7,286046999.4,N
1667283455.5,286046998.8,N
1667283475.4,286047000.8,N
1667283495.2,286047000.8,N
1667283515.0,286046999.0,N
1667283516.0,286046999.0,N
1667283535.8,286046999.4,N
1667283555.6,286046999.2,N
1667283575.4,286046997.9,N
1667283595.3,286046995.6,Y
1667283615.1,286046998.0,P
1667283635.8,286046995.8,P
1667283655.7,286046996.1,N
1667283675.5,286046997.7,N
1667283695.4,286046996.9,N
1667283715.2,286046998.8,N
1667283735.0,286047000.8,N
1667283735.9,286047000.8,N
1667283755.8,286046999.0,N
1667283775.6,286046999.4,N
1667283795.4,286046996.9,N
1667283815.3,286046997.4,N
1667283835.1,286046997.6,N
1667283855.9,286046997.6,N
1667283875.7,286046997.1,N
1667283895.5,286046997.2,N
1667283915.4,286046997.8,N
1667283935.2,286046996.7,N
1667283955.0,286046997.6,N
1667283955.9,286046997.6,N
1667283975.8,286046995.0,Y
1667283995.6,286046997.0,P
1667284015.5,286046999.5,N
1667284035.3,286046999.4,N
1667284055.1,286046999.5,N
1667284075.9,286046996.7,Y
1667284095.7,286046999.2,P
1667284115.5,286046998.9,P
1667284135.4,286046999.3,P
1667284155.2,286046998.8,Y
1667284175.1,286046999.4,P
1667284176.0,286046999.4,P
1667284195.8,286046998.1,P
1667284215.6,286046999.2,N
1667284235.5,286046998.9,N
1667284255.3,286046999.9,N
1667284275.1,286047000.3,N
1667284295.9,286047000.4,N
1667284315.7,286047000.5,N
1667284335.6,286047000.5,N
1667284355.4,286047001.0,N
1667284375.2,286046998.3,N
1667284395.1,286046997.0,Y
1667284396.0,286046997.0,P
1667284415.8,286046999.3,N
1667284435.7,286046999.4,N
1667284455.5,286046997.1,N
1667284475.3,286046996.8,N
1667284495.2,286046999.0,N
1667284515.0,286046999.4,N
1667284515.9,286046999.4,N
1667284535.8,286046998.7,N
1667284555.6,286047001.0,N
1667284575.4,286047000.6,N
1667284595.3,286047001.0,N
1667284615.1,286047001.0,N
1667284635.8,286047000.9,N
1667284655.7,286046998.8,N
1667284675.5,286046999.4,N
1667284695.4,286046998.3,N
1667284715.2,286046998.3,N
1667284735.0,286046998.8,N
1667284735.9,286046998.8,N
1667284755.8,286046998.6,N
1667284775.6,286047000.8,N
1667284795.4,286047000.3,N
1667284815.3,286046999.8,N
1667284835.1,286047000.9,N
1667284855.9,286047000.5,N
1667284875.7,286047000.4,N
1667284895.5,286047000.6,N
1667284915.4,286046998.6,N
1667284935.2,286046998.3,N
1667284955.0,286047000.7,N
1667284955.9,286047000.7,N
1667284975.8,286046998.5,N
1667284995.6,286047001.0,N
1667285015.5,286047001.1,N
1667285035.3,286047001.0,N
1667285055.1,286047000.9,N
1667285075.9,286046998.5,N
1667285095.7,286047001.0,N
1667285115.5,286046998.2,N
1667285135.4,286047000.7,N
1667285155.2,286046998.1,N
1667285175.1,286047000.5,N
1667285176.0,286047000.5,N
1667285195.8,286047011.9,Y
1667285215.6,286046999.8,P
1667285235.5,286047000.7,P
1667285255.3,286047000.2,N
1667285275.2,286047000.5,N
1667285295.9,286047001.2,Y
1667285315.7,286047001.1,P
1667285335.6,286047001.0,N
1667285355.4,286047001.0,N
1667285375.3,286046999.7,N
1667285395.1,286046999.7,N
1667285396.0,286046999.7,N
1667285415.8,286047000.2,N
1667285435.7,286047001.6,N
1667285455.5,286047001.4,N
1667285475.4,286047001.9,N
1667285495.2,286047004.2,Y
1667285515.0,286047001.3,P
1667285515.9,286047001.3,P
1667285535.8,286047001.3,P
1667285555.6,286047004.3,Y
1667285575.5,286047000.4,P
1667285595.3,286047000.3,N
1667285615.1,286047002.4,P
1667285635.9,286047000.5,N
1667285655.7,286046999.7,N
1667285675.6,286047002.8,Y
1667285695.4,286046999.8,P
1667285715.2,286047001.5,P
1667285735.1,286046999.8,N
1667285736.0,286046999.8,N
1667285755.8,286047000.5,N
1667285775.6,286047000.4,N
1667285795.5,286047002.7,Y
1667285815.3,286047002.6,P
1667285835.2,286047002.1,N
1667285855.9,286046999.7,N
1667285875.7,286047000.5,N
1667285895.6,286047002.2,N
1667285915.4,286047001.5,N
1667285935.2,286047001.3,N
1667285955.1,286047004.3,Y
1667285956.0,286047004.3,P
1667285975.8,286047001.6,N
1667285995.7,286047004.3,P
